Terminal Aerodrome Forecast
Issued by NWS

Home | Current Version | Previous Version | Graphics & Text | Print | Product List | Glossary On
Versions: 1 2 3 4 5 6 7 8 9 10 11 12 13 14 15 16 17 18 19 20 21 22 23 24 25 26 27 28
000
FTUS43 KLOT 202100 AAA
TAFDPA
TAF AMD
KDPA 202100Z 2021/2118 21008KT P6SM FEW040 SCT080 BKN250
     FM210200 20006KT P6SM SCT120 SCT250
     FM211500 22012G17KT P6SM SCT150 SCT250=

USA.gov is the U.S. government's official web portal to all federal, state and local government web resources and services.